[[[{"header":{"parameterUnit":"kt","parameterCategory":2,"dx":1,"dy":1,"la1":30.253999710083008,"la2":30.299108505249023,"lo1":-89.0895004272461,"lo2":-89.04439544677734,"nx":28,"ny":28,"refTime":"2022-09-22T21:00:00:Z","depth":0,"parameterNumber":1,"parameterNumberName":"U-component_of_WINDS"},"data":[-6.7872,-6.7986,-6.7975,-6.8099,-6.811,-6.8191,-6.8217,-6.8248,-6.827,-6.8366,-6.8419,-6.8419,-6.8434,-6.8493,-6.8548,-6.8546,-6.8568,-6.8616,-6.8604,-6.8402,-6.8372,-6.8344,-6.8314,-6.8623,-6.8624,-6.8813,-6.8815,-6.8816,-6.772,-6.7732,-6.7796,-6.7849,-6.7903,-6.7849,-6.7887,-6.7934,-6.8009,-6.8039,-6.809,-6.8173,-6.8237,-6.8237,-6.8296,-6.8346,-6.8322,-6.8362,-6.8354,-6.8356,-6.8141,-6.811,-6.838,-6.838,-6.838,-6.838,-6.838,-6.838,-6.744,-6.751,-6.7535,-6.7604,-6.7628,-6.7664,-6.7727,-6.7725,-6.7787,-6.7848,-6.7823,-6.7907,-6.7933,-6.7998,-6.8017,-6.808,-6.8033,-6.8072,-6.808,-6.8089,-6.8098,-6.7816,-6.8091,-6.809,-6.809,-6.8089,-6.8088,0,-6.7228,-6.7214,-6.7274,-6.7332,-6.7381,-6.7425,-6.7462,-6.7502,-6.7466,-6.7519,-6.7593,-6.7633,-6.7713,-6.778,-6.7833,-6.7844,-6.7788,-6.7785,-6.781,-6.7818,-6.7819,-6.7813,-6.7456,-6.7775,-6.7772,-6.777,-6.7769,-6.7768,-6.6937,-6.7023,-6.7045,-6.7089,-6.7106,-6.718,-6.7219,-6.7182,-6.7226,-6.7266,-6.7329,-6.7398,-6.7449,-6.7571,-6.7564,-6.7624,-6.7596,-6.7718,-6.7604,-6.7611,-6.7589,-6.7581,-6.7587,-6.7739,-6.7742,-6.7745,-6.7748,0,-6.6773,-6.6754,-6.6883,-6.6895,-6.6901,-6.6992,-6.7002,-6.7071,-6.7061,-6.7154,-6.7174,-6.7157,-6.7231,-6.7206,-6.7286,-6.7269,-6.7412,-6.7388,-6.7401,-6.7393,-6.7494,-6.7482,-6.7842,-6.7884,-6.7571,-6.7574,-6.7577,0,-6.6514,-6.6629,-6.6591,-6.6667,-6.6792,-6.675,-6.6875,-6.6878,-6.69,-6.6973,-6.6909,-6.6979,-6.6936,-6.7001,-6.6978,-6.7092,-6.7109,-6.7101,-6.7091,-6.7102,-6.7102,-6.7119,-6.7101,-6.7077,-6.7076,-6.7074,-6.7072,0,-6.6253,-6.6371,-6.6495,-6.6518,-6.6542,-6.6601,-6.6614,-6.6639,-6.6679,-6.6728,-6.6752,-6.6813,-6.6845,-6.6892,-6.686,-6.6783,-6.7001,-6.6888,-6.6991,-6.6992,-6.7035,-6.7032,-6.7363,-6.707,-6.707,-6.7069,-6.7068,0,-6.6038,-6.6089,-6.6275,-6.6292,-6.6324,-6.6407,-6.6462,-6.6528,-6.6558,-6.6548,-6.6586,-6.6538,-6.6641,-6.6529,-6.6667,-6.6574,-6.6609,-6.6612,-6.6619,-6.662,-6.6494,-6.6676,-6.7,-6.7029,-6.6629,-6.6625,-6.6622,0,-6.5741,-6.5924,-6.5888,-6.6066,-6.6145,-6.6064,-6.6156,-6.6185,-6.618,-6.6245,-6.6239,-6.6315,-6.6228,-6.6247,-6.632,-6.6314,-6.6436,-6.6299,-6.6386,-6.639,-6.6373,-6.6673,-6.6723,-6.6933,-6.6575,-6.658,-6.6584,0,-6.5507,-6.5537,-6.5572,-6.5594,-6.5628,-6.5695,-6.5802,-6.5868,-6.5913,-6.5956,-6.604,-6.6151,-6.6086,-6.612,-6.6088,-6.6165,-6.6353,-6.6085,-6.6085,-6.6128,-6.6552,-6.6599,-6.6634,-6.6313,-6.6319,-6.6323,-6.6547,0,-6.5174,-6.5264,-6.5359,-6.5414,-6.5463,-6.5575,-6.5547,-6.5601,-6.5564,-6.5554,-6.5683,-6.5702,-6.5768,-6.5805,-6.577,-6.5957,-6.5919,-6.5851,-6.5736,-6.5936,-6.6007,-6.6038,-6.563,-6.5627,-6.5624,-6.5621,0,0,-6.4891,-6.5019,-6.4976,-6.5078,-6.5116,-6.5029,-6.515,-6.5177,-6.5235,-6.5261,-6.5198,-6.5354,-6.5373,-6.553,-6.559,-6.5621,-6.5649,-6.5581,-6.5842,-6.5867,-6.589,-6.5968,-6.6,-6.5616,-6.5615,-6.5614,-6.5613,0,-6.4761,-6.4785,-6.4906,-6.4932,-6.4969,-6.4953,-6.4983,-6.5004,-6.5003,-6.5131,-6.5055,-6.5129,-6.5258,-6.5284,-6.5314,-6.5563,-6.5499,-6.5587,-6.5727,-6.5814,-6.5843,-6.5868,-6.595,-6.5981,-6.5606,-6.5606,-6.5607,0,-6.452,-6.4536,-6.4593,-6.4678,-6.4701,-6.4787,-6.466,-6.4758,-6.482,-6.4719,-6.4846,-6.4853,-6.4888,-6.5044,-6.5113,-6.5056,-6.5364,-6.5265,-6.5283,-6.5288,-6.537,-6.5404,-6.5435,-6.5027,-6.5025,-6.5024,0,0,-6.4411,-6.4496,-6.45,-6.4648,-6.4667,-6.4647,-6.4691,-6.4657,-6.4691,-6.4705,-6.4711,-6.4746,-6.4818,-6.4868,-6.4935,-6.5112,-6.5113,-6.5195,-6.5222,-6.5244,-6.5262,-6.535,-6.5384,-6.5016,-6.5016,-6.5016,0,0,-6.4359,-6.4368,-6.4324,-6.4492,-6.4528,-6.454,-6.463,-6.4576,-6.4634,-6.4617,-6.4565,-6.4572,-6.4718,-6.4728,-6.4634,-6.4892,-6.478,-6.4802,-6.488,-6.4914,-6.4941,-6.4933,-6.4504,0,0,0,0,0,-6.421,-6.4367,-6.4327,-6.4351,-6.4458,-6.4562,-6.4575,-6.4536,-6.4455,-6.4528,-6.4524,-6.4455,-6.4665,-6.4582,-6.4606,-6.4708,-6.4923,-6.494,-6.4955,-6.5097,-6.5133,-6.5164,0,0,0,0,0,0,-6.4219,-6.4249,-6.4323,-6.4342,-6.4366,-6.4556,-6.4411,-6.4404,-6.4446,-6.4431,-6.4458,-6.4456,-6.4423,-6.4566,-6.4589,-6.4687,-6.4496,-6.493,-6.4944,-6.4956,-6.511,-6.5139,-6.5164,0,0,0,0,0,-6.4226,-6.425,-6.4433,-6.434,-6.436,-6.4345,-6.4405,-6.4398,-6.443,-6.4425,-6.442,-6.4396,-6.4427,-6.4443,-6.458,-6.4678,-6.4481,-6.4489,-6.4939,-6.495,-6.496,-6.5124,0,0,0,0,0,0,-6.4231,-6.4244,-6.4436,-6.444,-6.4277,-6.4333,-6.434,-6.4393,-6.4419,-6.4417,-6.4359,-6.4347,-6.4432,-6.4444,-6.4457,-6.4677,-6.4468,-6.4476,-6.4482,-6.4947,-6.4956,-6.4964,0,0,0,0,0,0,-6.4231,-6.4249,-6.4438,-6.4362,-6.4357,-6.4323,-6.4329,-6.444,-6.4421,-6.4352,-6.4343,-6.4354,-6.4413,-6.4445,-6.4454,-6.4629,-6.4458,-6.4466,-6.4472,-6.4476,-6.4954,-6.4961,0,0,0,0,0,0,-6.4238,-6.4253,-6.436,-6.4357,-6.4352,-6.4402,-6.4419,-6.4531,-6.4356,-6.4352,-6.4339,-6.4332,-6.4416,-6.4425,-6.4454,-6.4624,-6.4628,-6.4458,-6.4464,-6.4468,-6.447,0,0,0,0,0,0,0,-6.4243,-6.4151,-6.4408,-6.4353,-6.4349,-6.4484,-6.4485,-6.4486,-6.4355,-6.4348,-6.4341,-6.4335,-6.4411,-6.442,-6.4429,-6.4621,0,0,-6.4457,-6.4461,0,0,0,0,0,0,0,0,-6.4144,-6.4149,-6.4408,-6.4409,-6.441,-6.4484,-6.4485,-6.4486,-6.4353,-6.4348,-6.4343,-6.4337,-6.4413,-6.4421,-6.4428,0,0,0,0,0,0,0,0,0,0,0,0,0,0,0,-6.4408,-6.4409,0,-6.4484,-6.4485,-6.4486,-6.4353,-6.4348,-6.4344,-6.4339,-6.4415,-6.4421,-6.4427,0,0,0,0,0,0,0,0,0,0,0,0,0,0,0,0,0,0,0,0,0,0,0,0,0,0,0,0,0,0,0,0,0,0,0,0,0,0,0,0,0,0,0,0,0,0,0,0,0,0,0,0,0,0,0,0,0,0,0,0,0,0,0,0,0,0,0,0,0]}],[{"header":{"parameterUnit":"kt","parameterCategory":2,"dx":1,"dy":1,"la1":30.253999710083008,"la2":30.299108505249023,"lo1":-89.0895004272461,"lo2":-89.04439544677734,"nx":28,"ny":28,"refTime":"2022-09-22T21:00:00:Z","depth":0,"parameterNumber":2,"parameterNumberName":"V-component_of_WINDS"},"data":[-4.9448,-4.9402,-4.9369,-4.93,-4.9259,-4.9204,-4.9174,-4.9131,-4.9088,-4.9017,-4.8969,-4.893,-4.8872,-4.8805,-4.875,-4.8733,-4.8711,-4.8716,-4.8694,-4.8705,-4.8704,-4.8703,-4.8712,-4.8712,-4.8712,-4.8687,-4.8687,-4.8687,-4.9448,-4.9408,-4.9364,-4.9299,-4.9259,-4.9233,-4.9179,-4.9146,-4.9098,-4.9046,-4.8999,-4.8933,-4.8876,-4.8816,-4.8755,-4.8728,-4.8711,-4.8713,-4.8713,-4.8703,-4.8714,-4.8724,-4.8727,-4.8727,-4.8727,-4.8727,-4.8727,-4.8727,-4.944,-4.9415,-4.9358,-4.931,-4.9268,-4.9224,-4.9193,-4.9148,-4.9103,-4.9039,-4.901,-4.8954,-4.8895,-4.8807,-4.877,-4.8722,-4.8714,-4.8706,-4.8703,-4.87,-4.8701,-4.8732,-4.8711,-4.8711,-4.8711,-4.8711,-4.8711,0,-4.9424,-4.9399,-4.9357,-4.9303,-4.9266,-4.9222,-4.9176,-4.9156,-4.9093,-4.9058,-4.9004,-4.8968,-4.8895,-4.8838,-4.8776,-4.8738,-4.8707,-4.8702,-4.8695,-4.8707,-4.8723,-4.8708,-4.8723,-4.8703,-4.8703,-4.8703,-4.8703,-4.8703,-4.9409,-4.9386,-4.9314,-4.9287,-4.9255,-4.9215,-4.9183,-4.913,-4.9098,-4.9033,-4.9012,-4.8957,-4.891,-4.8829,-4.8775,-4.872,-4.8704,-4.8699,-4.8696,-4.8706,-4.8698,-4.8699,-4.8694,-4.8701,-4.8701,-4.8701,-4.8701,0,-4.9403,-4.9355,-4.9309,-4.924,-4.9222,-4.9199,-4.9138,-4.9111,-4.9071,-4.9027,-4.9014,-4.8951,-4.89,-4.8848,-4.8779,-4.8753,-4.8705,-4.8693,-4.8722,-4.8716,-4.8703,-4.8703,-4.8679,-4.8671,-4.8674,-4.8674,-4.8674,0,-4.937,-4.9343,-4.9271,-4.9248,-4.9213,-4.9162,-4.9128,-4.9092,-4.9044,-4.9009,-4.8968,-4.8936,-4.8876,-4.8835,-4.8797,-4.8749,-4.8738,-4.8714,-4.8703,-4.8716,-4.8718,-4.8696,-4.8695,-4.8688,-4.8688,-4.8688,-4.8688,0,-4.9363,-4.9296,-4.9258,-4.9234,-4.916,-4.9142,-4.911,-4.9057,-4.9028,-4.8981,-4.896,-4.891,-4.8882,-4.8841,-4.8793,-4.8792,-4.8736,-4.8725,-4.871,-4.8711,-4.87,-4.8701,-4.8694,-4.8688,-4.8688,-4.8688,-4.8688,0,-4.933,-4.9287,-4.9242,-4.9177,-4.9161,-4.9137,-4.9084,-4.9052,-4.9,-4.8975,-4.8939,-4.8906,-4.8865,-4.8856,-4.8797,-4.8808,-4.8781,-4.8756,-4.8754,-4.8745,-4.8737,-4.8735,-4.8737,-4.8733,-4.8737,-4.8738,-4.8738,0,-4.9331,-4.9275,-4.9233,-4.9191,-4.9157,-4.9113,-4.9084,-4.9042,-4.9007,-4.8971,-4.8932,-4.8892,-4.8876,-4.8856,-4.8834,-4.8792,-4.8777,-4.8793,-4.8734,-4.8733,-4.8745,-4.8747,-4.8759,-4.8742,-4.8743,-4.8742,-4.8742,0,-4.9328,-4.9243,-4.9239,-4.9209,-4.9148,-4.9121,-4.909,-4.9041,-4.9019,-4.8978,-4.8947,-4.8894,-4.8876,-4.8847,-4.8816,-4.8796,-4.8785,-4.8781,-4.8779,-4.878,-4.8744,-4.8753,-4.8751,-4.8768,-4.8767,-4.8767,-4.8746,0,-4.9278,-4.9247,-4.9236,-4.9178,-4.915,-4.9124,-4.9075,-4.9051,-4.9024,-4.8989,-4.8946,-4.8902,-4.8853,-4.884,-4.8815,-4.8786,-4.8783,-4.8768,-4.8755,-4.8758,-4.8749,-4.8746,-4.8771,-4.877,-4.877,-4.8769,0,0,-4.929,-4.9245,-4.9203,-4.9174,-4.9147,-4.9105,-4.9081,-4.9051,-4.8992,-4.8973,-4.8966,-4.8884,-4.885,-4.8802,-4.88,-4.8783,-4.8771,-4.8774,-4.8758,-4.8757,-4.8756,-4.8748,-4.8745,-4.8768,-4.8768,-4.8768,-4.8768,0,-4.9262,-4.9232,-4.9211,-4.9178,-4.9128,-4.9094,-4.9089,-4.9033,-4.901,-4.8972,-4.8936,-4.8905,-4.8847,-4.8811,-4.8785,-4.8778,-4.8753,-4.8768,-4.8779,-4.8754,-4.8754,-4.8754,-4.8746,-4.8744,-4.8766,-4.8766,-4.8766,0,-4.9247,-4.9206,-4.9193,-4.9137,-4.9105,-4.9074,-4.9047,-4.9019,-4.8994,-4.8951,-4.8914,-4.8883,-4.8834,-4.88,-4.8783,-4.8776,-4.8738,-4.8745,-4.8747,-4.8744,-4.8717,-4.8717,-4.8717,-4.8719,-4.8719,-4.8719,0,0,-4.9229,-4.9202,-4.9144,-4.9128,-4.9109,-4.906,-4.9041,-4.9013,-4.8972,-4.8956,-4.8916,-4.8876,-4.8839,-4.8817,-4.8782,-4.8752,-4.8736,-4.8741,-4.8743,-4.8745,-4.8743,-4.8718,-4.8718,-4.8719,-4.8719,-4.8719,0,0,-4.922,-4.9153,-4.9135,-4.911,-4.9073,-4.9014,-4.9005,-4.898,-4.8944,-4.8942,-4.8894,-4.8882,-4.8849,-4.8822,-4.8828,-4.8775,-4.8764,-4.8762,-4.8795,-4.8797,-4.8799,-4.8806,-4.8796,0,0,0,0,0,-4.9168,-4.9161,-4.9145,-4.9134,-4.9066,-4.9023,-4.9014,-4.8975,-4.8966,-4.8958,-4.8921,-4.8897,-4.8814,-4.8819,-4.8808,-4.8801,-4.8721,-4.872,-4.872,-4.8756,-4.8759,-4.8761,0,0,0,0,0,0,-4.9163,-4.915,-4.9145,-4.9088,-4.9072,-4.9023,-4.8999,-4.8988,-4.8966,-4.8961,-4.8905,-4.8896,-4.8861,-4.8822,-4.8812,-4.8806,-4.8799,-4.872,-4.872,-4.872,-4.8757,-4.8759,-4.8761,0,0,0,0,0,-4.9159,-4.9149,-4.9049,-4.9088,-4.9074,-4.902,-4.8999,-4.899,-4.8972,-4.8916,-4.8905,-4.8944,-4.8862,-4.8851,-4.8816,-4.8812,-4.8805,-4.8802,-4.872,-4.872,-4.872,-4.8758,0,0,0,0,0,0,-4.9156,-4.9139,-4.9045,-4.904,-4.9089,-4.9022,-4.901,-4.8991,-4.8926,-4.8916,-4.8952,-4.895,-4.8863,-4.8854,-4.8846,-4.8815,-4.881,-4.8807,-4.8805,-4.872,-4.872,-4.872,0,0,0,0,0,0,-4.9144,-4.9135,-4.9042,-4.9046,-4.904,-4.9024,-4.9014,-4.8979,-4.8926,-4.8966,-4.8962,-4.8952,-4.8874,-4.8856,-4.885,-4.8798,-4.8814,-4.8811,-4.8809,-4.8807,-4.872,-4.872,0,0,0,0,0,0,-4.9139,-4.9131,-4.9047,-4.9043,-4.9037,-4.8969,-4.8993,-4.8924,-4.893,-4.897,-4.8929,-4.8929,-4.8877,-4.887,-4.8853,-4.8804,-4.8799,-4.8814,-4.8812,-4.881,-4.8809,0,0,0,0,0,0,0,-4.9135,-4.9203,-4.908,-4.904,-4.9035,-4.8986,-4.8984,-4.8983,-4.893,-4.893,-4.8929,-4.8929,-4.8833,-4.8829,-4.8826,-4.8808,0,0,-4.8814,-4.8813,0,0,0,0,0,0,0,0,-4.9206,-4.9204,-4.908,-4.9079,-4.9078,-4.8986,-4.8984,-4.8983,-4.893,-4.893,-4.8929,-4.8929,-4.8832,-4.8829,-4.8826,0,0,0,0,0,0,0,0,0,0,0,0,0,0,0,-4.908,-4.9079,0,-4.8986,-4.8984,-4.8983,-4.893,-4.893,-4.893,-4.8929,-4.8831,-4.8829,-4.8826,0,0,0,0,0,0,0,0,0,0,0,0,0,0,0,0,0,0,0,0,0,0,0,0,0,0,0,0,0,0,0,0,0,0,0,0,0,0,0,0,0,0,0,0,0,0,0,0,0,0,0,0,0,0,0,0,0,0,0,0,0,0,0,0,0,0,0,0,0]}]]]